Challis, ID

11:00 AM MDT on July 24, 2017 (GMT -0600)
Challis

Weather History for KLLJ - June, 2013

Change the Weather History Date:

Friday, June 21, 2013

  Actual Average Record
Temperature  
Mean Temperature 52 °F 62 °F  
Max Temperature 65 °F 77 °F 96 °F (1900)
Min Temperature 38 °F 46 °F 32 °F (1915)
Degree Days  
Heating Degree Days 13 4  
Month to date heating degree days 96 139  
Since 1 June heating degree days 96 139  
Since 1 July heating degree days 7717 8135  
Cooling Degree Days 0 1  
Month to date cooling degree days 29 9  
Year to date cooling degree days 31 11  
Since 1 June cooling degree days 29 9  
Growing Degree Days 2 (Base 50)    
Moisture  
Dew Point 32 °F    
Average Humidity 53    
Maximum Humidity 83    
Minimum Humidity 22    
Precipitation  
Precipitation 0.31 in 0.04 in 1.28 in (1948)
Month to date precipitation 0.45 1.24  
Year to date precipitation 1.67 5.38  
Sea Level Pressure  
Sea Level Pressure 29.99 in    
Wind  
Wind Speed 4 mph (NNW)    
Max Wind Speed 22 mph    
Max Gust Speed 26 mph    
Visibility 10 miles    
Events Rain    
T = Trace of Precipitation, MM = Missing Value Source: NWS Daily Summary

Daily Weather History Graph

Daily Weather History Graph

Search for Another Location

Airport or City:

Trip Planner

Search our weather history database for the weather conditions in past years. The results will help you decide how hot, cold, wet, or windy it might be!

Date:

Astronomy

Jun. 21, 2013 Rise Set
Actual Time 5:52 AM MDT 9:25 PM MDT
Civil Twilight 5:15 AM MDT 10:02 PM MDT
Nautical Twilight 4:26 AM MDT 10:51 PM MDT
Astronomical Twilight 3:22 AM MDT 11:54 PM MDT
Moon 7:37 PM MDT (6/21) 4:14 AM MDT (6/21)
Length of Visible Light 16h 47m
Length of Day
15h 33m
Waxing Gibbous, 95% of the Moon is Illuminated
Jun 21
Waxing Gibbous
Jun 23
Full
Jun 29
Last Quarter
Jul 8
New
Jul 15
First Quarter

Hourly Weather History & Observations

Time (MDT) Temp. Windchill Dew Point Humidity Pressure Visibility Wind Dir Wind Speed Gust Speed Precip Events Conditions
12:55 AM 39.9 °F - 33.1 °F 77% 30.01 in 10.0 mi Calm Calm - N/A   Mostly Cloudy
1:55 AM 39.9 °F 36.7 °F 30.9 °F 70% 29.99 in 10.0 mi WNW 4.6 mph - N/A   Clear
2:55 AM 39.0 °F - 30.9 °F 73% 29.99 in 10.0 mi Calm Calm - N/A   Clear
3:55 AM 39.0 °F - 32.0 °F 76% 29.99 in 10.0 mi Calm Calm - N/A   Clear
4:55 AM 39.9 °F - 30.9 °F 70% 29.98 in 10.0 mi Calm Calm - N/A   Scattered Clouds
5:55 AM 39.0 °F - 30.0 °F 70% 30.00 in 10.0 mi Calm Calm - N/A   Overcast
6:55 AM 39.0 °F - 32.0 °F 76% 30.01 in 10.0 mi Calm Calm - N/A   Partly Cloudy
7:55 AM 43.0 °F - 32.0 °F 65% 30.01 in 10.0 mi Calm Calm - N/A   Partly Cloudy
8:55 AM 46.9 °F - 33.1 °F 59% 30.02 in 10.0 mi Calm Calm - N/A   Clear
9:55 AM 51.1 °F - 32.0 °F 48% 30.01 in 10.0 mi Calm Calm - N/A   Clear
10:55 AM 55.0 °F - 33.1 °F 43% 29.97 in 10.0 mi Calm Calm - N/A   Partly Cloudy
11:55 AM 60.1 °F - 25.0 °F 26% 29.95 in 10.0 mi North 3.5 mph - N/A   Clear
12:55 PM 61.0 °F - 27.0 °F 27% 29.95 in 10.0 mi NNW 5.8 mph - N/A   Overcast
1:55 PM 61.0 °F - 24.1 °F 24% 29.94 in 10.0 mi West 3.5 mph - N/A   Overcast
2:55 PM 63.0 °F - 26.1 °F 25% 29.94 in 10.0 mi NNW 3.5 mph - N/A   Mostly Cloudy
3:55 PM 63.0 °F - 26.1 °F 25% 29.94 in 10.0 mi NW 8.1 mph - N/A   Mostly Cloudy
4:55 PM 64.0 °F - 25.0 °F 23% 29.92 in 10.0 mi NE 4.6 mph - N/A   Scattered Clouds
5:55 PM 60.1 °F - 32.0 °F 35% 29.96 in 10.0 mi SSE 12.7 mph 21.9 mph N/A   Overcast
6:55 PM 59.0 °F - 32.0 °F 36% 29.97 in 10.0 mi ESE 9.2 mph 17.3 mph N/A   Mostly Cloudy
7:55 PM 57.0 °F - 35.1 °F 44% 29.98 in 10.0 mi NNE 4.6 mph - N/A   Overcast
8:37 PM 48.2 °F - 39.2 °F 71% 30.08 in 7.0 mi West 16.1 mph 26.5 mph 0.00 in Rain Rain
8:55 PM 48.0 °F - 39.0 °F 71% 30.04 in 10.0 mi West 13.8 mph - 0.01 in Rain Light Rain
9:55 PM 46.0 °F 43.9 °F 37.9 °F 73% 30.07 in 4.0 mi WSW 4.6 mph - 0.10 in Rain Rain
10:55 PM 44.1 °F 40.8 °F 39.0 °F 82% 30.06 in 7.0 mi NE 5.8 mph - 0.16 in Rain Light Rain
11:55 PM 44.1 °F 42.5 °F 37.9 °F 79% 30.04 in 10.0 mi North 3.5 mph - 0.04 in   Overcast